Terminal Aerodrome Forecast
Issued by NWS New Orleans/Baton Rouge, LA

Home | Current Version | Previous Version | Text Only | Print | Product List | Glossary On
Versions: 1 2 3 4 5 6 7 8 9 10 11 12
000
FTUS44 KLIX 301736
TAFBTR
TAF
KBTR 301736Z 3018/3118 VRB03KT P6SM SCT050
     FM301900 24004KT P6SM SCT050
     FM310100 00000KT P6SM SCT180=

USA.gov is the U.S. government's official web portal to all federal, state and local government web resources and services.